Regional Weather Roundup
Issued by NWS Upton, NY

Current Version | Previous Version | Text Only | Print | Product List | Glossary Off
Versions: 1 2 3 4 5 6 7 8 9 10 11 12 13 14 15 16 17 18 19 20 21 22 23 24 25 26 27

000
ASUS41 KOKX 210409
RWROKX

REGIONAL WEATHER ROUNDUP
NATIONAL WEATHER SERVICE NEW YORK NY
1200 AM EDT MON AUG 21 2017

NOTE: "FAIR" INDICATES FEW OR NO CLOUDS BELOW 12,000 FEET WITH NO
SIGNIFICANT WEATHER AND/OR OBSTRUCTIONS TO VISIBILITY.

NYZ071-072-176-178-NJZ106-104-210500-
NEW YORK CITY METRO AREA

CITY           SKY/WX    TMP DP  RH WIND       PRES   REMARKS
Central Park   CLEAR     75  59  57 CALM      30.19R
Bronx Bot Gard   N/A     73  57  56 E3        30.18R
LaGuardia APRT PTCLDY    78  64  61 NW5       30.15R
Kennedy INTL   PTCLDY    76  62  62 W7        30.17R
Breezy Point   NOT AVBL
Newark/Liberty CLEAR     75  60  59 W9        30.16R
Teterboro      CLEAR     73  61  65 NW5       30.15R
$$

NYZ177-179-078>081-210500-
LONG ISLAND NEW YORK

CITY           SKY/WX    TMP DP  RH WIND       PRES   REMARKS
Jones Beach      N/A     73 N/A N/A W6          N/A
Matinecock PT    N/A     73 N/A N/A SW3         N/A
Farmingdale    CLEAR     73  60  63 CALM      30.16R
MacArthur/ISP  CLEAR     69  62  78 W3        30.15R
Shirley        CLEAR     66  63  90 CALM      30.16R
Mt Sinai Harb    N/A    N/A N/A N/A W3          N/A
Westhampton    CLEAR     60  56  86 CALM      30.17R
East Hampton   FAIR      62  60  93 CALM      30.14R
Montauk          N/A     72  65  78 CALM      30.15R
$$

NYZ052-065-067-210500-
HUDSON VALLEY

CITY           SKY/WX    TMP DP  RH WIND       PRES   REMARKS
White Plains   CLEAR     69  62  78 NW3       30.16R
Larchmont Harb   N/A     72 N/A N/A CALM        N/A
Croton On Huds   N/A     68 N/A N/A NE2         N/A
Newburgh       CLEAR     66  63  88 CALM      30.18R
Montgomery     CLEAR     64  61  90 CALM      30.16R
Poughkeepsie   CLEAR     64  61  90 CALM      30.15R
Albany         CLEAR     66  59  78 CALM      30.14R
$$

NJZ001-105-106-008-010-013-015-019>022-104-210500-
NEW JERSEY

CITY           SKY/WX    TMP DP  RH WIND       PRES   REMARKS
Newark/Liberty CLEAR     75  60  59 W9        30.16R
Teterboro      CLEAR     73  61  65 NW5       30.15R
Caldwell       CLEAR     68  64  87 S3        30.18R
Somerville     CLEAR     64  64 100 CALM      30.16R FOG
Linden         FAIR      73  60  65 W5        30.17R
Perth Amboy      N/A     72 N/A N/A W5          N/A
Sussex         CLEAR     63  62  97 CALM      30.18R
Andover          N/A     63  62  97 CALM      30.19S
Trenton        CLEAR     70  63  78 CALM      30.18R
Millville      CLEAR     68  66  93 CALM      30.18S
Atlantic City  CLEAR     70  65  84 W3        30.18R
Wrightstown    CLEAR     68  63  84 CALM      30.16R
Toms River     CLEAR     64  60  87 W3        30.19R
Belmar         CLEAR     69  62  78 SW5       30.19R
$$

PAZ047>061-062-071-210500-
EASTERN PENNSYLVANIA

CITY           SKY/WX    TMP DP  RH WIND       PRES   REMARKS
Philadelphia   PTCLDY    75  66  73 SW3       30.18S
Allentown      CLEAR     68  63  84 W3        30.18S
Scranton       CLEAR     65  62  90 S3        30.19S
$$

CTZ002-004>006-009-010-012-RIZ004-006-007-MAZ004-011-015-210500-
SOUTHERN NEW ENGLAND
 IN CT

CITY           SKY/WX    TMP DP  RH WIND       PRES   REMARKS
Bradley INTL   CLEAR     65  60  84 W3        30.14R
Hartford       CLEAR     67  62  84 CALM      30.14R
Danbury        CLEAR     63  61  93 SW3       30.18R
Wtrbury/Oxford NOT AVBL
Norwalk Harbor   N/A     72 N/A N/A W6          N/A
Bridgeport     CLEAR     72  63  73 N3        30.15R
Meriden        CLEAR     62  59  90 CALM      30.15R
New Haven      CLEAR     64  61  90 CALM      30.15R
Chester        FAIR      70  57  64 CALM      30.15S
Groton         CLEAR     67  58  72 N5        30.13R
Wilimantic     CLEAR     64  62  93 CALM      30.15R

 IN RI

CITY           SKY/WX    TMP DP  RH WIND       PRES   REMARKS
Providence     CLEAR     68  60  75 W6        30.13R
Block Island   CLEAR     70  61  73 NW5       30.14R
Westerly       CLEAR     66  61  84 CALM      30.14R
 IN MA

CITY           SKY/WX    TMP DP  RH WIND       PRES   REMARKS
Boston         CLEAR     74  57  55 W7        30.10R
Worcester      CLEAR     66  55  67 W9        30.15R
Westfield      CLEAR     62  61  96 CALM      30.14R
Provincetown   CLEAR     63  60  90 SW5       30.11R
Nantucket      CLEAR     64  64 100 CALM      30.11R
$$

ANZ330-335-338-340-345-350-353-355-210500-
COASTAL MARINE OBSERVATIONS


STATION/POSITION TIME  SKY/WX   TEMP    WIND        PRES    VSBY  WAVE
                                AIR SEA DIR/SP/G                  HT/PER
                 (UTC)          (F)     (DEG/KT/KT) (MB)    (MI)  (FT/S)
NY HARB ENTRANCE 0250            77 76  250/  8/ 10 1020.2          1/ 8
GREAT SOUTH BAY  0330            77 79  290/  6/  8   N/A
23 SSW MONTAUK P 0250            73 72              1020.6          2/ 5
15 E BARNEGAT LI 0330               78                N/A           2/ 8
HUDSON CANYON    0250            75 74  250/ 10/ 12 1020.6          2/ 8
KINGS POINT      0348            76 74  320/  3/  6 1021.0
EXECUTION ROCKS  NOT AVBL
WESTERN LI SOUND NOT AVBL
CENTRAL LI SOUND NOT AVBL
EASTERN LI SOUND NOT AVBL
ROBBINS REEF     0348                   240/  8/  9 1021.9
$$


>>>>>>>>>>>>>>>>>>>>>>>>>>>> KEY <<<<<<<<<<<<<<<<<<<<<<<<<<<
>                                                          <
>     SKY/WX - Sky Condition/Present Weather               <
>     TMP    - Temperature in Fahrenheit                   <
>     DP     - Dew Point in Fahrenheit                     <
>     RH     - Relative Humidity in Percent                <
>     WIND   - Direction (from) and Speed in MPH           <
>     PRES   - Mean Sea Level Pressure (inches of Hg)      <
>     WCI    - Wind Chill Index                            <
>     VSB    - VISIBILITY IN MILES                         <
>     HX     - HEAT INDEX                                  <
>     TC     - TEMPERATURE IN CELSIUS                      <
>     VRB    - VARIABLE WIND DIRECTION                     <
>                                                          <
>>>>>>>>>>>>>>>>>>>>>>>>>>>> KEY <<<<<<<<<<<<<<<<<<<<<<<<<<<




USA.gov is the U.S. government's official web portal to all federal, state and local government web resources and services.